Weather History for Point Pleasant, WV

Change the Weather History Date:

Tuesday, February 25, 2014

  Actual Average (KHTS) Record (KHTS)
Temperature  
Mean Temperature 34 °F 40 °F  
Max Temperature 39 °F 50 °F 80 °F (1930)
Min Temperature 30 °F 30 °F -1 °F (1967)
Degree Days  
Heating Degree Days 30 25  
Month to date heating degree days 703  
Since 1 July heating degree days 3427  
Cooling Degree Days 0 0  
Month to date cooling degree days 0  
Year to date cooling degree days 0  
Moisture  
Dew Point 21 °F    
Average Humidity 62    
Maximum Humidity 86    
Minimum Humidity 41    
Precipitation  
Precipitation 0.00 in 0.12 in 1.21 in (1979)
Month to date precipitation 2.73  
Year to date precipitation 5.70  
Snow  
Snow 0.00 in - - ()
Month to date snowfall  
Since 1 September snowfall  
Snow Depth -    
Sea Level Pressure  
Sea Level Pressure 30.14 in    
Wind  
Wind Speed 2 mph (West)    
Max Wind Speed 8 mph    
Max Gust Speed -    
Visibility 9 miles    
Events Snow    
T = Trace of Precipitation, MM = Missing Value Source: NWS Daily Summary

Daily Weather History Graph

Daily Weather History Graph

Search for Another Location

Airport:

Trip Planner

Search our weather history database for the weather conditions in past years. The results will help you decide how hot, cold, wet, or windy it might be!

Date:

Astronomy

Feb. 25, 2014 Rise Set
Actual Time 7:06 AM EST 6:16 PM EST
Civil Twilight 6:39 AM EST 6:43 PM EST
Nautical Twilight 6:08 AM EST 7:14 PM EST
Astronomical Twilight 5:37 AM EST 7:45 PM EST
Moon 3:58 AM EST (2/25) 2:22 PM EST (2/25)
Length of Visible Light 12h 04m
Length of Day
11h 10m
Waning Crescent, 18% of the Moon is Illuminated
Feb 25
Waning Crescent
Mar 1
New
Mar 8
First Quarter
Mar 16
Full
Mar 23
Last Quarter

Hourly Weather History & Observations

Time (EST) Temp. Windchill Dew Point Humidity Pressure Visibility Wind Dir Wind Speed Gust Speed Precip Events Conditions
12:15 AM 33.8 °F - 17.6 °F 52% 30.18 in 10.0 mi Calm Calm - N/A   Clear
12:35 AM 33.8 °F - 14.0 °F 44% 30.18 in 10.0 mi Calm Calm - N/A   Mostly Cloudy
12:55 AM 33.8 °F - 19.4 °F 56% 30.18 in 10.0 mi Calm Calm - N/A   Overcast
1:15 AM 33.8 °F 29.6 °F 14.0 °F 44% 30.17 in 10.0 mi NW 4.6 mph - N/A   Overcast
1:35 AM 35.6 °F 30.7 °F 14.0 °F 41% 30.17 in 10.0 mi NNW 5.8 mph - N/A   Overcast
1:55 AM 33.8 °F 29.6 °F 15.8 °F 48% 30.17 in 10.0 mi NW 4.6 mph - N/A   Overcast
2:15 AM 33.8 °F 30.8 °F 17.6 °F 52% 30.16 in 10.0 mi NW 3.5 mph - N/A   Overcast
2:30 AM 33.8 °F - 19.4 °F 56% 30.15 in 10.0 mi Calm Calm - N/A   Overcast
3:00 AM 33.8 °F 30.8 °F 19.4 °F 56% 30.14 in 10.0 mi West 3.5 mph - N/A   Overcast
3:15 AM 33.8 °F - 19.4 °F 56% 30.13 in 10.0 mi Calm Calm - N/A   Overcast
4:55 AM 33.8 °F 30.8 °F 17.6 °F 52% 30.13 in 10.0 mi NW 3.5 mph - N/A   Overcast
5:15 AM 33.8 °F 30.8 °F 17.6 °F 52% 30.14 in 10.0 mi West 3.5 mph - N/A   Overcast
5:35 AM 33.8 °F - 19.4 °F 56% 30.15 in 10.0 mi Calm Calm - N/A   Overcast
5:55 AM 32.0 °F - 21.2 °F 64% 30.16 in 4.0 mi Calm Calm - N/A Snow Light Snow
6:15 AM 32.0 °F - 23.0 °F 69% 30.17 in 4.0 mi Calm Calm - N/A Snow Light Snow
6:35 AM 32.0 °F - 24.8 °F 75% 30.17 in 2.5 mi Calm Calm - N/A Snow Light Snow
6:55 AM 32.0 °F - 26.6 °F 80% 30.18 in 1.5 mi Calm Calm - N/A Snow Light Snow
7:15 AM 30.2 °F - 26.6 °F 86% 30.19 in 1.0 mi Calm Calm - N/A Snow Snow
7:35 AM 30.2 °F - 26.6 °F 86% 30.19 in 1.0 mi Calm Calm - N/A Snow Light Snow
7:55 AM 30.2 °F - 24.8 °F 80% 30.19 in 0.8 mi Calm Calm - N/A Snow Light Snow
8:15 AM 30.2 °F 26.7 °F 24.8 °F 80% 30.20 in 1.2 mi WNW 3.5 mph - N/A Snow Light Snow
8:35 AM 30.2 °F - 24.8 °F 80% 30.20 in 3.0 mi Calm Calm - N/A Snow Light Snow
8:55 AM 30.2 °F - 23.0 °F 75% 30.21 in 4.0 mi Calm Calm - N/A Snow Light Snow
9:15 AM 30.2 °F - 23.0 °F 75% 30.21 in 4.0 mi Calm Calm - N/A Snow Light Snow
9:35 AM 30.2 °F 26.7 °F 23.0 °F 75% 30.21 in 5.0 mi SW 3.5 mph - N/A Snow Light Snow
9:55 AM 32.0 °F 27.5 °F 23.0 °F 69% 30.21 in 7.0 mi SW 4.6 mph - N/A   Overcast
10:15 AM 32.0 °F 27.5 °F 23.0 °F 69% 30.20 in 10.0 mi SW 4.6 mph - N/A   Overcast
10:35 AM 32.0 °F 26.4 °F 26.6 °F 80% 30.20 in 10.0 mi SW 5.8 mph - N/A   Overcast
10:55 AM 32.0 °F 28.7 °F 24.8 °F 75% 30.20 in 10.0 mi WSW 3.5 mph - N/A   Overcast
11:15 AM 32.0 °F 27.5 °F 23.0 °F 69% 30.20 in 10.0 mi West 4.6 mph - N/A   Overcast
11:35 AM 32.0 °F 28.7 °F 23.0 °F 69% 30.20 in 10.0 mi West 3.5 mph - N/A   Overcast
11:50 AM 32.0 °F 27.5 °F 23.0 °F 69% 30.20 in 10.0 mi West 4.6 mph - N/A   Overcast
12:20 PM 33.8 °F 29.6 °F 24.8 °F 70% 30.19 in 10.0 mi West 4.6 mph - N/A   Overcast
12:35 PM 33.8 °F 29.6 °F 24.8 °F 70% 30.19 in 10.0 mi West 4.6 mph - N/A Snow Light Snow
12:55 PM 35.6 °F 31.7 °F 26.6 °F 70% 30.18 in 10.0 mi WNW 4.6 mph - N/A   Overcast
1:15 PM 35.6 °F 30.7 °F 24.8 °F 65% 30.17 in 10.0 mi West 5.8 mph - N/A   Overcast
1:35 PM 33.8 °F 27.0 °F 24.8 °F 70% 30.16 in 10.0 mi WSW 8.1 mph - N/A   Overcast
1:55 PM 35.6 °F 29.9 °F 23.0 °F 60% 30.15 in 10.0 mi SW 6.9 mph - N/A   Overcast
2:15 PM 35.6 °F 29.9 °F 23.0 °F 60% 30.14 in 10.0 mi West 6.9 mph - N/A   Overcast
2:35 PM 35.6 °F 30.7 °F 23.0 °F 60% 30.14 in 10.0 mi West 5.8 mph - N/A   Overcast
2:55 PM 35.6 °F 30.7 °F 21.2 °F 56% 30.13 in 10.0 mi West 5.8 mph - N/A   Overcast
3:15 PM 35.6 °F 29.2 °F 23.0 °F 60% 30.13 in 10.0 mi WSW 8.1 mph - N/A   Overcast
3:35 PM 39.2 °F 34.2 °F 21.2 °F 49% 30.12 in 10.0 mi West 6.9 mph - N/A   Overcast
3:55 PM 35.6 °F 30.7 °F 19.4 °F 52% 30.11 in 10.0 mi WNW 5.8 mph - N/A   Overcast
4:15 PM 35.6 °F 31.7 °F 19.4 °F 52% 30.12 in 10.0 mi WNW 4.6 mph - N/A   Overcast
4:35 PM 35.6 °F 32.8 °F 19.4 °F 52% 30.11 in 10.0 mi West 3.5 mph - N/A   Overcast
4:55 PM 35.6 °F - 19.4 °F 52% 30.10 in 10.0 mi Calm Calm - N/A   Overcast
5:15 PM 35.6 °F 31.7 °F 19.4 °F 52% 30.10 in 10.0 mi West 4.6 mph - N/A   Mostly Cloudy
5:35 PM 35.6 °F 31.7 °F 19.4 °F 52% 30.11 in 10.0 mi West 4.6 mph - N/A   Mostly Cloudy
5:55 PM 35.6 °F 32.8 °F 19.4 °F 52% 30.11 in 10.0 mi WNW 3.5 mph - N/A   Scattered Clouds
6:15 PM 33.8 °F 29.6 °F 19.4 °F 56% 30.10 in 10.0 mi West 4.6 mph - N/A   Scattered Clouds
6:35 PM 33.8 °F - 21.2 °F 60% 30.10 in 10.0 mi Calm Calm - N/A   Clear
6:55 PM 33.8 °F - 19.4 °F 56% 30.10 in 10.0 mi Calm Calm - N/A   Clear
7:15 PM 33.8 °F - 19.4 °F 56% 30.10 in 10.0 mi Calm Calm - N/A   Clear
7:35 PM 33.8 °F - 19.4 °F 56% 30.10 in 10.0 mi Calm Calm - N/A   Clear
7:55 PM 33.8 °F - 21.2 °F 60% 30.09 in 10.0 mi Calm Calm - N/A   Clear
8:15 PM 33.8 °F - 21.2 °F 60% 30.09 in 10.0 mi Calm Calm - N/A   Clear
8:35 PM 33.8 °F - 21.2 °F 60% 30.08 in 10.0 mi Calm Calm - N/A   Clear
8:55 PM 33.8 °F - 23.0 °F 65% 30.08 in 10.0 mi Calm Calm - N/A   Clear
9:15 PM 32.0 °F - 23.0 °F 69% 30.08 in 10.0 mi Calm Calm - N/A   Clear
9:35 PM 33.8 °F - 21.2 °F 60% 30.08 in 10.0 mi Calm Calm - N/A   Scattered Clouds
9:55 PM 33.8 °F - 23.0 °F 65% 30.09 in 10.0 mi Calm Calm - N/A   Mostly Cloudy
10:15 PM 33.8 °F - 21.2 °F 60% 30.08 in 10.0 mi Calm Calm - N/A   Overcast
10:35 PM 33.8 °F - 21.2 °F 60% 30.08 in 10.0 mi Calm Calm - N/A   Overcast
10:55 PM 33.8 °F 30.8 °F 21.2 °F 60% 30.08 in 10.0 mi West 3.5 mph - N/A   Overcast
11:15 PM 33.8 °F - 21.2 °F 60% 30.07 in 10.0 mi Calm Calm - N/A   Overcast
11:35 PM 33.8 °F 30.8 °F 21.2 °F 60% 30.06 in 10.0 mi WNW 3.5 mph - N/A   Overcast
11:55 PM 33.8 °F 30.8 °F 23.0 °F 65% 30.05 in 10.0 mi WSW 3.5 mph - N/A   Overcast